Terminal Aerodrome Forecast
Issued by NWS Charleston, WV

Current Version | Previous Version | Graphics & Text | Print | Product List | Glossary On
Versions: 1 2 3 4 5 6 7 8 9 10 11 12 13 14 15 16 17 18 19 20 21
000
FTUS41 KRLX 150900 AAA
TAFPKB
TAF AMD
KPKB 150905Z 1509/1606 19003KT P6SM SCT026 OVC030
     FM151900 16005KT P6SM SCT035
     FM160400 14004KT P6SM OVC050=

USA.gov is the U.S. government's official web portal to all federal, state and local government web resources and services.